星链-2044 (STARLINK-2044 )

导读 | 豆包AI

STARLINK-2044是美国SpaceX公司星链(Starlink)星座中的一颗1.0版本卫星,于2021年2月16日发射入轨,属于星链一期壳层1的组网卫星。星链项目计划部署数万颗低轨卫星,为全球提供高速低延迟卫星互联网服务,该卫星配备霍尔推进器与自主避撞系统,服役寿命结束后会再入大气层销毁,减少太空垃圾风险。

基本信息
目录编号:
47660
目录名称:
STARLINK-2044
国际标识:
2021-012AS
轨道中心:
EARTH
卫星名称:
星链-2044
卫星全名:
星链-2044 (STARLINK-2044 )
卫星状态:
已陨落 最后检测时间 2025-03-12
发射日期:
2021-02-16 UTC
国别 :
美国 (US)
星等 :
--
轨道信息
数据来源 国际轨道数据
星历时间: 2025-03-12T11:43:00+0800
轨道信息已过期439天
半长轴: 6528.46km
偏心率: 0.0004616
轨道倾角: 53.019°
近地点辐角 229.476°
升交点赤经 86.675°
平近点角 208.529°
近地点: 147.311km
远地点: 153.339km
周期: 87.493分钟
每日圈数: 16.458366
详细信息
固有亮度:
5
最大亮度:
2.5
卫星平台:
Starlink V1.0
覆盖范围:
全球
运营商:
太空探索技术公司
运营商所在国:
美国
制造商(研发单位):
太空探索技术公司
制造商所在国:
美国
使用方式:
暂无
卫星简介
星链(Starlink)计划是由太空探索技术公司(SpaceX)提出的一个巨型低轨卫星互联网星座项目,计划在2019年至2024年间在太空搭建由约1.2万颗卫星组成的“星链”网络,其中1584颗将部署在地球上空550千米处的近地轨道,并从2020年开始工作。该卫星仍在工作。